Weather in Ust'-Kulom

Russia / Komi Republic     61°41′08″N   53°41′23″E
temp.,
°C
wind,
m/s
gust,
m/s
humid.,
%
clouds,
%
prec.,
mm/h
press.,
hPa
HPBL,
m
23 april, fri
fri2300:00+4s41191100 0.0 1022693
03:00+4s41086100 0.0 1022624
06:00+5ssw4888100 0.0 1022774
09:00+6sw3780100 0.1 1023988
12:00+8sw3767100 0.0 10231124
15:00+11ssw3658100 0.0 10231074
18:00+9sse386995 0.0 1024337
21:00+6sse278720 0.0 1025179
24 april, sat
sat2400:00+4sse25935 0.0 102584
03:00+3se23945 0.0 102555
06:00+5se368656 0.0 1024222
09:00+7ese3775100 0.0 1024480
12:00+11ese465149 0.0 10221516
15:00+12se4647100 0.0 10201873
18:00+8ese3968100 0.0 1019772
21:00+7ese41076100 0.0 1017970
25 april, sun
sun2500:00+7ese41080100 0.0 1016894
03:00+5ese41085100 0.0 1014928
06:00+5ese51196100 0.7 10121004
09:00+6ese5118175 1.3 10111064
12:00+9ese51062100 0.3 10091593
15:00+8ese61167100 0.6 10071346
18:00+6ese51085100 0.3 10051147
21:00+4se4996100 0.8 1004870
26 april, mon
mon2600:00+3s4997100 1.0 1003606
03:00+3ssw498358 1.9 1004777
06:00+3ssw4875100 0.0 10051041
09:00+3s488185 0.1 1006834
12:00+6s5761100 0.1 10051570
15:00+6s4755100 0.4 10041577
18:00+5s4868100 0.4 10031033
21:00+3s41197100 0.6 1002779
27 april, tue
tue2700:00+2ssw41297100 1.3 1001766
03:00+2sw41197100 2.8 1001651
06:00+2sw31097100 1.4 1001587
09:00+1sw31097100 2.9 1002542
12:00+1sw3997100 1.6 1003519
15:00+2wsw3898100 2.9 1004415
18:00+3wsw388379 0.1 1004727
21:00+1wsw399296 0.1 1005357